Lapse_Rate
5.6 5.6 5.7 5.7 5.7 6.0 6.3 6.6 6.6 6.6 6.8 7.0 7.2 7.2 7.1 7.0 7.2 7.4 7.3 7.1 7.1 7.3 7.2 7.1 7.1 7.1 7.1 7.0 6.9 6.7 7.2 7.5 7.3 7.3 6.7 6.4 6.3 6.0 5.9 6.0 5.2 5.6 5.3 5.8 6.0
5.4 5.6 5.6 5.7 5.7 5.7 6.0 6.3 6.6 6.7 6.8 6.9 7.0 7.1 6.9 6.9 7.1 7.3 7.4 7.4 7.2 7.3 7.3 7.2 7.2 7.1 7.1 7.1 6.8 6.6 7.8 7.4 7.2 6.9 6.7 6.4 6.3 5.9 5.8 5.7 5.6 5.8 6.0 6.1 5.9
5.2 5.4 5.6 5.6 5.6 5.7 5.7 5.9 6.2 6.6 6.7 6.8 6.9 6.7 6.8 6.8 6.9 7.2 7.2 7.2 7.3 7.1 7.1 7.2 7.4 7.5 7.2 7.3 7.2 6.8 7.1 7.0 7.0 6.8 6.7 6.6 6.4 6.1 6.0 6.0 5.8 5.9 6.2 6.1 5.9
5.1 5.2 5.5 5.6 5.6 5.7 5.6 5.8 5.9 6.2 6.6 6.7 6.7 6.7 6.8 6.7 6.8 6.7 7.1 6.9 7.2 7.1 7.2 7.3 7.3 7.6 6.8 6.8 7.2 7.1 7.0 6.9 7.1 6.8 6.8 6.6 6.5 6.1 6.2 6.1 5.9 6.0 6.3 6.1 6.0
5.1 5.1 5.3 5.5 5.6 5.7 5.7 5.7 5.8 5.9 6.2 6.6 6.7 6.8 6.8 6.7 6.6 6.7 6.8 7.0 7.0 7.3 7.3 7.5 7.5 7.4 7.2 7.0 7.0 6.8 7.1 7.1 7.1 7.0 6.9 6.8 6.7 6.6 6.3 6.0 6.1 6.1 6.4 6.3 6.0
5.0 5.1 5.3 5.4 5.5 5.7 5.8 5.8 5.7 5.8 6.0 6.1 6.5 6.8 6.8 6.6 6.6 6.8 6.9 6.9 6.9 7.0 7.2 7.5 7.8 7.7 7.6 7.2 7.2 7.4 7.1 7.3 7.1 7.0 6.9 7.0 6.8 6.4 6.3 6.3 6.1 6.0 6.2 6.4 6.1
5.0 5.0 5.1 5.3 5.5 5.7 5.9 5.9 5.7 5.7 5.8 6.0 6.1 6.4 6.7 6.6 6.5 6.6 6.8 6.9 6.9 6.9 7.0 7.4 7.7 7.8 7.9 7.5 7.9 7.7 7.7 7.7 7.5 7.3 7.2 7.1 7.0 6.9 6.6 6.4 6.2 6.1 6.1 6.2 6.2
5.0 5.1 5.1 5.2 5.4 5.7 5.8 5.9 5.8 5.7 5.8 5.9 5.9 6.2 6.2 6.5 6.5 6.4 6.6 6.6 6.8 6.9 7.0 7.3 7.4 7.5 7.6 7.9 8.1 8.1 8.0 9.3 7.8 7.6 7.4 7.3 8.2 7.4 6.8 6.5 6.4 6.3 6.2 6.2 6.3
5.0 5.1 5.2 5.3 5.4 5.6 5.7 5.7 5.7 5.8 5.9 5.8 5.7 5.8 5.9 6.3 6.3 6.4 6.4 6.6 6.7 6.9 7.2 7.3 7.3 7.2 7.1 7.7 8.4 8.7 9.2 8.5 8.0 7.6 7.5 7.3 7.7 7.4 7.2 6.5 6.1 6.2 6.2 6.1 6.2
5.1 5.0 5.2 5.3 5.4 5.6 5.6 5.6 5.6 5.8 5.9 5.9 5.8 5.9 6.0 6.3 6.3 6.4 6.5 6.6 6.6 6.9 7.2 7.4 7.4 7.2 7.7 8.4 8.5 9.1 9.3 8.4 8.4 7.9 7.6 7.6 7.5 7.3 7.1 6.8 6.4 6.1 6.1 6.2 6.1
5.4 5.3 5.2 5.3 5.4 5.5 5.5 5.5 5.5 5.6 5.8 5.8 5.8 5.9 6.0 6.2 6.3 6.6 6.6 6.7 6.7 6.8 7.1 7.3 7.5 8.4 8.2 8.2 8.3 8.4 8.4 8.4 8.3 7.9 7.6 7.8 7.9 7.6 7.2 7.0 6.8 6.4 6.4 6.3 6.0
5.7 5.6 5.5 5.5 5.5 5.4 5.5 5.5 5.5 5.5 5.5 5.9 6.0 6.0 5.9 6.1 6.2 6.5 6.8 7.0 7.0 7.1 7.2 7.3 7.9 8.0 8.1 8.3 8.4 8.3 8.4 8.6 7.9 8.0 7.7 8.0 7.8 7.7 7.3 7.5 7.0 6.8 6.4 6.1 5.8
6.0 5.9 5.9 5.8 5.7 5.6 5.5 5.5 5.6 5.6 5.7 5.9 6.1 6.2 6.2 6.3 6.2 6.3 6.7 7.0 7.1 7.2 7.6 7.9 8.1 7.9 8.3 8.6 8.9 8.8 8.8 8.9 8.7 7.9 7.9 7.7 8.8 8.4 7.8 7.5 6.9 6.8 6.6 6.3 6.0
6.3 6.3 6.2 6.1 6.0 5.8 5.6 5.6 5.6 5.7 5.8 6.1 6.3 6.4 6.3 6.3 6.3 6.5 6.8 6.8 7.0 7.7 7.9 7.9 8.0 8.1 8.5 8.8 8.9 9.3 8.7 8.7 8.6 8.4 9.2 8.1 9.3 8.9 8.5 7.8 7.3 6.9 6.7 6.4 6.2
6.6 6.6 6.6 6.4 6.3 6.1 5.9 5.7 5.8 5.9 7.4 6.5 6.3 6.6 6.5 6.4 6.8 6.7 6.9 6.8 7.5 7.6 7.7 9.2 8.4 8.7 8.7 9.0 8.8 8.9 8.8 8.9 8.6 8.3 8.3 9.0 9.1 9.4 8.5 8.1 7.7 7.4 7.1 6.8 6.5
6.8 6.8 6.9 6.8 6.6 6.4 6.0 5.9 5.9 6.1 7.3 6.4 6.3 6.3 6.5 6.5 6.7 6.9 7.0 7.1 7.3 7.3 7.6 8.1 7.8 8.2 8.7 8.6 8.7 8.6 8.8 8.9 8.9 9.3 9.4 8.8 9.2 9.4 8.9 8.4 8.2 7.7 7.6 7.1 6.8
6.9 6.9 6.9 7.0 6.9 6.7 6.4 6.1 6.3 7.1 7.0 6.9 6.8 6.7 7.0 6.9 7.0 7.0 6.9 7.1 7.5 7.7 8.1 8.5 8.4 8.6 8.6 8.7 9.0 8.9 9.5 9.7 9.8 9.7 9.9 9.0 9.0 9.3 8.3 8.4 8.3 7.8 7.7 7.4 7.1
6.9 6.9 6.9 7.1 6.9 6.8 6.5 6.1 7.0 7.5 7.3 7.0 7.1 7.2 7.4 7.5 7.3 7.1 7.2 7.4 7.6 7.9 8.6 8.8 9.3 8.7 9.1 8.8 9.3 9.4 9.6 9.7 9.5 9.8 9.9 8.9 9.7 8.7 8.5 8.2 8.3 8.2 7.9 7.8 7.5
6.9 6.8 6.8 7.0 7.0 6.8 6.5 6.6 7.6 7.4 7.1 7.2 7.2 7.5 7.6 7.5 7.5 7.4 7.4 7.6 7.7 7.6 7.9 8.6 8.6 8.7 8.6 8.9 9.0 9.6 9.1 9.6 9.7 9.5 9.7 9.7 8.9 8.1 7.9 7.6 7.8 8.0 8.2 7.9 7.9
6.7 6.7 6.7 6.8 6.9 6.6 6.2 7.0 6.9 6.9 7.0 7.3 7.7 7.8 8.1 7.7 7.6 7.7 7.7 7.8 7.7 7.7 7.7 8.4 8.5 8.8 8.5 8.9 9.1 9.0 9.2 9.4 9.5 9.7 9.5 9.7 9.4 8.9 7.9 7.6 7.7 7.7 7.8 8.2 8.4
6.6 6.5 6.7 6.7 6.7 6.3 6.2 7.0 6.8 6.8 7.1 7.1 7.5 7.8 8.1 8.1 8.1 8.2 8.2 7.9 7.7 7.9 7.8 8.3 8.4 9.0 8.8 9.0 9.5 8.7 8.6 8.9 9.5 9.5 9.9 9.9 9.4 8.4 8.7 8.5 8.2 8.5 8.3 8.3 8.5
6.3 5.9 6.6 6.6 6.4 5.9 6.3 6.7 6.4 6.6 7.0 6.9 7.3 7.4 7.8 8.0 8.2 8.5 8.5 8.3 8.0 7.9 8.1 8.2 8.7 8.9 9.2 8.6 8.5 8.6 9.4 9.5 9.6 9.3 9.4 9.4 8.9 8.8 8.8 8.9 8.8 8.6 8.6 8.7 8.7
6.3 6.3 6.4 6.4 6.0 5.9 6.2 6.4 6.4 6.5 6.6 6.9 7.1 7.2 7.4 7.9 8.2 8.4 8.5 8.2 8.3 8.1 8.1 8.1 8.3 9.2 9.0 8.7 8.6 8.5 8.8 9.3 9.5 9.4 9.4 9.7 8.9 8.9 8.9 8.9 8.9 9.0 8.8 8.7 8.9
6.2 5.7 6.1 6.2 6.1 6.2 6.4 6.4 6.4 6.4 6.5 6.5 6.9 7.2 7.4 7.7 7.9 8.1 8.2 8.4 8.4 8.3 8.4 8.4 8.9 9.3 9.7 9.6 9.6 9.2 8.9 9.0 9.5 9.7 9.6 9.6 8.2 8.8 8.8 8.9 8.8 8.7 8.7 8.7 8.7
6.0 6.0 6.2 5.8 5.9 5.8 6.2 6.3 6.6 6.6 6.4 6.7 6.8 7.3 7.8 8.1 8.2 8.2 8.4 8.3 8.5 8.5 8.6 8.2 8.6 8.8 8.9 8.8 8.8 9.3 9.6 8.9 9.0 9.5 9.6 9.5 9.4 8.9 8.9 8.9 8.8 8.5 8.4 8.5 8.5
6.1 6.1 6.1 6.3 6.4 6.4 6.0 6.0 6.5 6.5 6.5 6.9 6.9 7.2 7.6 7.8 8.6 8.8 8.6 8.5 8.5 8.4 8.4 8.4 8.6 8.4 8.7 8.6 8.5 8.9 9.1 9.2 8.9 8.8 9.0 8.9 8.3 9.0 8.9 8.8 8.9 8.8 8.2 8.1 8.1
6.1 6.2 6.0 6.0 6.3 6.4 6.4 6.4 6.5 6.7 6.7 7.0 7.1 7.3 7.4 7.5 7.7 8.4 8.5 8.4 8.2 8.2 8.2 8.3 8.6 8.4 9.1 8.8 8.6 8.7 8.9 8.6 8.9 8.3 8.8 8.8 8.7 8.8 8.9 8.9 8.8 8.6 8.4 7.9 7.6
Wind_Speed
13 12 12 12 10 9 10 10 10 10 11 11 10 9 9 10 11 6 8 3 6 25 15 12 8 6 6 4 4 4 3 9 9 9 10 12 9 4 5 12 6 3 6 19 18
13 13 12 12 11 10 9 10 10 10 8 10 12 10 9 8 8 12 7 15 30 22 17 12 7 5 3 2 2 5 3 9 6 7 12 11 7 8 7 12 10 9 15 20 19
14 14 13 13 12 11 9 9 11 11 9 7 9 10 8 10 7 4 17 24 23 23 10 5 4 5 3 2 1 3 10 5 8 6 11 11 9 7 7 8 8 12 19 20 19
15 15 14 13 13 12 11 9 11 12 11 8 7 7 7 5 2 6 19 26 25 15 11 6 1 3 1 5 4 4 5 3 8 10 8 11 11 7 5 9 8 13 20 20 18
16 16 15 15 14 14 12 11 10 13 12 7 7 6 6 6 5 11 18 23 16 11 8 4 3 5 7 7 2 4 6 5 7 10 7 9 9 7 8 5 8 14 19 19 16
18 16 16 15 14 15 14 12 11 12 12 9 6 6 5 4 3 15 16 20 12 11 6 4 5 8 5 6 4 6 2 8 9 9 6 7 8 4 8 7 11 14 18 17 16
19 18 17 17 15 15 16 15 13 12 12 10 5 5 6 4 2 14 16 15 11 9 3 3 7 8 11 4 7 1 8 10 9 9 8 5 7 8 10 11 13 14 15 15 15
19 19 18 18 17 16 16 18 15 11 9 7 6 5 3 2 5 13 14 10 9 10 7 8 8 9 4 7 4 4 5 7 6 7 6 8 9 11 13 14 14 14 14 14 15
21 20 18 18 17 17 18 19 12 2 5 3 5 5 3 2 8 14 12 7 10 9 6 6 7 6 4 6 8 7 3 4 6 6 5 12 1 2 12 14 13 15 15 15 15
24 22 20 18 17 18 20 10 4 4 5 5 4 5 7 3 7 10 9 6 7 9 7 7 4 8 8 5 2 5 1 4 4 7 8 9 10 6 10 14 14 14 15 15 15
23 23 22 19 16 16 13 4 4 5 7 5 3 2 7 7 9 10 11 9 8 9 9 6 7 1 9 7 8 9 8 8 2 1 8 15 12 8 12 14 14 15 16 16 16
23 22 21 20 17 14 6 5 4 5 5 11 8 6 4 1 6 10 12 11 10 12 8 8 9 6 9 5 10 8 8 2 2 1 6 5 10 12 12 16 15 15 16 17 15
24 22 22 21 20 4 5 3 1 6 6 8 8 10 9 11 9 15 17 16 12 14 11 12 2 3 9 9 9 2 7 2 6 1 7 11 11 9 12 14 14 14 16 17 16
24 23 21 26 6 0 4 5 3 4 5 11 9 7 9 7 9 9 18 10 8 13 13 10 6 7 5 9 7 4 8 5 2 8 4 3 5 4 6 13 15 17 16 17 17
24 22 19 12 7 4 5 1 3 4 5 7 7 4 8 14 9 10 16 11 14 10 8 7 7 6 8 6 4 7 8 3 10 10 9 9 5 6 4 8 13 16 18 17 17
25 20 18 4 5 6 3 3 4 6 5 7 8 12 14 14 7 8 12 10 5 8 11 13 1 7 8 2 8 1 3 4 8 10 7 4 6 11 5 4 2 16 17 17 17
26 23 9 5 1 1 3 5 6 7 3 7 9 12 18 12 13 9 15 16 12 11 14 15 15 14 9 12 7 9 12 8 5 6 3 4 7 8 9 7 3 11 18 16 16
32 22 10 5 3 4 5 7 8 2 5 4 3 9 14 13 15 13 9 15 17 12 9 9 15 15 11 15 17 13 11 9 4 4 5 3 2 6 7 7 6 12 15 14 14
32 3 3 3 11 4 8 11 4 3 1 3 6 10 12 10 7 14 15 13 15 16 14 6 14 4 3 7 9 9 10 11 11 7 8 2 9 8 10 10 10 13 14 12 12
4 3 4 1 9 6 9 14 3 2 3 4 9 10 13 15 14 14 12 9 13 13 16 9 10 5 6 5 5 10 4 8 10 5 7 6 2 9 7 6 8 10 9 6 4
4 4 5 5 7 7 11 11 7 3 5 3 2 6 8 9 16 14 11 6 6 9 13 14 10 8 3 8 3 6 12 9 6 5 3 5 8 5 5 4 7 7 6 5 3
4 4 5 4 8 9 12 10 1 6 4 4 5 6 6 9 14 14 11 3 4 7 8 17 9 10 13 3 5 9 9 13 8 11 5 8 6 5 6 6 5 8 8 8 8
2 2 5 4 7 9 8 10 9 7 7 4 4 2 2 4 6 12 11 6 4 9 6 9 10 9 10 9 6 9 10 9 3 4 5 8 6 6 8 8 8 9 10 10 11
3 4 4 5 3 8 13 14 14 6 11 9 9 7 8 8 7 6 9 7 3 6 4 3 14 11 10 8 5 14 10 11 12 7 7 10 13 8 8 10 11 12 12 12 12
1 2 5 6 9 6 5 2 12 8 6 5 8 14 13 12 9 9 8 8 6 6 6 7 10 7 14 9 8 13 12 13 13 13 7 5 7 9 10 12 13 13 14 14 15
4 4 1 1 3 9 6 9 8 5 6 7 10 5 13 14 12 11 12 9 8 8 7 7 6 6 10 5 10 14 15 14 15 5 6 5 9 10 12 14 14 14 14 15 15
4 1 4 4 4 6 8 8 6 2 5 6 7 7 9 7 4 5 4 2 2 5 8 6 7 8 14 3 6 10 13 13 12 5 8 11 8 16 15 14 14 14 14 14 14
Wind_Direction
2 358 353 351 357 358 346 339 330 327 323 322 323 315 314 316 301 210 241 128 162 165 173 154 178 188 215 258 255 251 209 108 120 152 131 147 139 123 103 135 127 66 154 127 142
1 357 353 349 349 351 349 336 328 325 320 321 319 312 314 321 262 256 128 142 145 170 175 177 188 194 248 256 225 270 79 82 106 105 147 162 149 139 158 145 142 111 108 133 148
1 355 351 347 343 343 346 335 326 320 317 307 306 306 312 306 263 70 127 142 155 178 172 193 205 256 278 252 75 27 39 64 124 124 137 154 157 157 149 172 148 150 149 153 160
2 356 349 344 339 337 336 335 319 316 314 314 301 294 303 252 39 54 140 149 165 179 177 184 242 261 309 30 57 303 76 61 107 145 147 158 141 167 168 63 135 146 159 161 170
3 357 349 342 337 332 331 327 320 312 310 310 298 291 258 221 73 117 140 157 174 187 195 205 289 335 23 2 346 318 43 95 123 141 144 147 153 124 175 103 136 147 164 171 177
359 354 347 342 337 329 326 324 318 306 304 303 292 288 251 230 65 143 148 167 181 187 198 231 342 348 300 332 350 353 340 115 134 136 146 181 149 192 159 152 145 161 174 179 182
357 355 349 341 337 330 323 318 310 299 295 293 279 267 253 21 59 156 160 178 183 206 190 274 308 312 334 317 355 334 138 138 144 157 148 210 188 207 144 170 162 173 178 184 187
354 353 348 340 334 330 323 315 309 293 275 273 264 250 307 37 157 164 178 179 201 221 277 300 300 293 269 318 238 214 229 180 144 182 145 216 126 176 163 181 179 179 178 187 190
349 349 347 340 333 328 322 316 305 278 213 229 231 258 144 144 177 179 189 185 182 207 241 286 283 302 258 246 212 192 130 123 161 215 170 219 97 150 176 195 188 186 183 187 191
345 343 343 341 334 327 318 292 297 242 196 214 264 233 171 158 147 171 193 202 190 196 224 238 240 262 214 222 352 355 351 173 235 177 210 225 252 183 197 201 203 196 187 189 193
343 340 339 337 331 326 314 204 208 187 217 272 104 342 128 108 148 181 176 188 174 207 227 205 263 268 10 354 326 296 278 283 289 124 279 267 248 240 196 213 201 195 190 193 198
342 339 337 332 325 314 259 251 25 358 243 221 242 259 211 247 167 168 182 202 204 226 205 214 228 276 334 313 308 291 278 80 274 240 247 260 260 250 206 209 209 195 193 198 193
340 338 337 330 322 260 250 241 191 307 253 167 208 228 203 201 217 177 189 211 218 228 219 262 161 223 308 308 320 170 314 76 35 170 214 290 247 190 215 207 204 198 190 193 192
337 336 336 327 289 47 218 160 257 261 262 156 200 200 184 224 218 163 203 205 217 241 225 256 259 261 270 291 303 103 357 304 276 317 359 350 325 256 165 195 202 201 192 192 189
333 333 330 333 319 230 60 251 249 224 256 133 147 101 159 199 124 176 194 211 239 203 222 216 210 203 245 308 299 13 336 345 28 288 307 183 273 117 156 194 200 206 189 192 186
328 326 325 206 223 275 279 279 211 229 236 149 142 174 173 201 183 136 182 223 279 239 228 270 168 266 278 309 284 133 264 182 188 250 234 98 268 91 61 51 72 186 189 181 184
323 315 288 285 35 321 255 201 219 245 122 161 177 178 192 182 188 194 189 201 215 219 231 231 232 233 245 252 218 237 254 255 223 206 28 106 269 43 3 343 232 184 177 174 179
322 314 185 245 279 273 208 213 242 301 209 118 185 188 203 195 210 197 202 216 219 256 274 230 232 214 203 253 270 232 269 287 274 270 23 149 291 65 29 50 120 160 166 165 175
314 179 198 186 216 247 214 214 224 221 46 211 177 203 196 198 247 202 220 227 217 212 240 222 238 275 260 256 256 219 238 273 285 225 258 99 106 113 67 59 81 131 152 159 170
303 233 117 119 180 219 218 232 227 274 321 233 233 210 201 193 198 197 188 215 223 217 229 250 264 241 132 199 213 259 349 216 219 273 266 130 175 91 36 44 92 106 117 118 137
240 220 39 169 186 209 216 219 228 213 273 282 234 221 251 190 202 196 197 164 211 199 232 236 238 144 203 203 270 177 226 234 301 289 290 243 100 46 36 48 96 87 74 70 78
287 208 137 198 193 210 223 217 4 222 200 263 280 280 246 206 210 215 209 229 148 189 200 215 231 234 239 76 273 276 283 208 227 188 244 306 89 62 65 84 85 79 76 68 68
303 91 170 250 213 209 210 237 241 227 228 254 268 261 316 234 222 225 227 103 209 209 221 180 224 221 215 174 184 231 206 247 272 288 190 277 100 96 102 94 88 97 91 89 90
273 182 154 214 292 274 211 229 225 212 257 262 271 272 253 232 209 200 195 173 168 222 30 260 250 240 252 257 214 197 211 224 237 229 190 230 125 124 117 116 111 103 98 92 87
300 66 354 188 204 225 219 259 224 226 221 226 237 243 246 246 217 219 198 161 184 148 195 234 251 254 266 288 285 261 250 207 230 261 256 93 132 139 139 130 118 113 108 100 94
335 326 206 182 207 220 168 199 229 212 236 217 242 270 249 243 258 242 205 204 196 178 203 214 253 264 271 253 259 250 246 254 230 221 231 224 126 135 134 132 129 123 117 108 99
12 258 283 137 193 218 220 240 237 250 194 262 283 272 238 245 325 322 348 15 75 232 201 223 253 247 264 175 253 246 230 229 221 227 249 214 186 157 154 146 137 128 119 112 106